Stations météo

Publicité
Rouen, France (7037): Température de l'air & dewpoint: 17.04.2019 04:00:00 - 23.04.2019 04:00:00 (CEST)Rouen, France (7037): Température de l'air 5cm: 17.04.2019 04:00:00 - 23.04.2019 04:00:00 (CEST)Rouen, France (7037): Température de l'air -20cm & Température de l'air -100cm: 17.04.2019 04:00:00 - 23.04.2019 04:00:00 (CEST)Rouen, France (7037): Vitesse du vent & gusts: 17.04.2019 04:00:00 - 23.04.2019 04:00:00 (CEST)Rouen, France (7037): Direction du vent: 17.04.2019 04:00:00 - 23.04.2019 04:00:00 (CEST)Rouen, France (7037): reduced air pressure: 17.04.2019 04:00:00 - 23.04.2019 04:00:00 (CEST)Rouen, France (7037): visibility: 17.04.2019 04:00:00 - 23.04.2019 04:00:00 (CEST)Rouen, France (7037): Ensoleillement: 17.04.2019 04:00:00 - 23.04.2019 04:00:00 (CEST)Rouen, France (7037): Quantités de précipitations: 17.04.2019 04:00:00 - 23.04.2019 04:00:00 (CEST)
Date & Time tt [°C] td [°C] tt 5cm [°C] tt -20cm [°C] tt -100cm [°C] ff [km/h] ff [knt] fx [km/h] fx [knt] dd ppp [hPa] vv [km] sd [min] rr [mm]
23.04.2019 04:00:00 13,6 6,7 8,0 13,8 10,5 12 6 13 7 NE 998,0 49 0 0,0
23.04.2019 03:00:00 13,9 7,4 11,6 13,9 10,5 11 6 16 9 NE 998,7 49 0 0,0
23.04.2019 02:00:00 13,8 7,8 9,6 14,0 10,5 14 8 16 9 NE 999,1 46 0 0,0
23.04.2019 01:00:00 13,1 7,7 10,5 14,1 10,5 12 7 15 8 NE 999,7 49 0 0,0
23.04.2019 00:00:00 15,1 7,9 12,7 14,2 10,5 13 7 17 9 NE 999,7 53 0 0,0
22.04.2019 23:00:00 16,4 8,1 13,9 14,2 10,5 12 6 17 9 NE 1000,5 49 0 0,0
22.04.2019 22:00:00 17,5 7,5 14,5 14,2 10,4 10 5 12 6 N 1000,9 58 0 0,0
22.04.2019 21:00:00 18,9 8,5 16,4 14,2 10,4 8 5 10 6 NNE 1001,1 58 0 0,0
22.04.2019 20:00:00 20,6 7,9 20,3 14,1 10,4 7 4 9 5 N 1001,2 56 5 0,0
22.04.2019 19:00:00 20,9 11,0 23,8 14,0 10,4 4 2 10 6 ENE 1001,6 45 16 0,0
22.04.2019 18:00:00 21,4 10,5 22,7 13,9 10,4 8 4 16 9 ENE 1002,1 55 1 0,0
22.04.2019 17:00:00 21,2 10,1 23,3 13,7 10,4 10 5 18 10 E 1003,1 56 0 0,0
22.04.2019 16:00:00 22,4 9,9 26,6 13,6 10,4 6 3 12 6 E 1003,6 51 2 0,0
22.04.2019 15:00:00 21,9 7,3 25,0 13,4 10,4 5 3 13 7 S 1004,1 51 0 0,0
22.04.2019 14:00:00 22,1 8,2 25,9 13,1 10,3 6 3 15 8 SSW 1004,5 53 29 0,0
22.04.2019 13:00:00 22,9 8,6 28,7 13,0 10,4 6 3 16 9 SW 1005,0 20 60 0,0
22.04.2019 12:00:00 20,9 10,1 26,0 12,9 10,4 9 5 18 10 S 1006,0 60 60 0,0
22.04.2019 11:00:00 19,6 8,6 21,9 12,9 10,4 11 6 17 9 SSE 1006,7 60 60 0,0
22.04.2019 10:00:00 15,6 7,6 18,5 12,9 10,3 12 7 21 11 S 1007,3 20 60 0,0
22.04.2019 09:00:00 15,5 7,5 15,3 13,0 10,3 5 3 11 6 E 1007,4 23 60 0,0
22.04.2019 08:00:00 13,4 7,8 9,4 13,1 10,3 9 5 13 7 ESE 1008,0 26 26 0,0
22.04.2019 07:00:00 11,2 6,3 8,1 13,2 10,3 6 4 13 7 ESE 1008,4 26 0 0,0
22.04.2019 06:00:00 11,2 5,9 5,0 13,3 10,3 9 5 13 7 E 1008,7 22 0 0,0
22.04.2019 05:00:00 11,3 6,8 9,2 13,4 10,3 9 5 13 7 ESE 1009,8 23 0 0,0
22.04.2019 04:00:00 11,5 6,8 8,5 13,5 10,3 11 6 14 7 ENE 1010,4 16 0 0,0
22.04.2019 03:00:00 11,5 6,0 8,4 13,6 10,3 11 6 13 7 ENE 1011,0 23 0 0,0
22.04.2019 02:00:00 12,8 5,5 9,1 13,8 10,3 12 7 16 8 NE 1011,7 28 0 0,0
22.04.2019 01:00:00 14,5 5,3 11,5 13,8 10,3 12 7 16 9 NE 1012,4 38 0 0,0
22.04.2019 00:00:00 15,5 5,1 9,8 13,9 10,2 11 6 13 7 NE 1013,0 41 0 0,0
21.04.2019 23:00:00 15,4 5,0 9,5 14,0 10,2 9 5 11 6 NE 1013,6 50 0 0,0
21.04.2019 22:00:00 17,3 5,2 10,4 14,0 10,2 9 5 11 6 NNE 1013,8 58 0 0,0
21.04.2019 21:00:00 17,7 5,6 13,4 14,0 10,2 10 6 14 7 NE 1013,9 59 0 0,0
21.04.2019 20:00:00 20,1 6,1 20,5 13,9 10,2 10 5 13 7 NE 1014,0 59 26 0,0
21.04.2019 19:00:00 19,6 8,0 21,1 13,8 10,2 9 5 18 10 NE 1014,4 55 7 0,0
21.04.2019 18:00:00 21,8 6,5 24,4 13,6 10,2 11 6 19 11 NE 1014,9 45 4 0,0
21.04.2019 17:00:00 23,0 7,1 26,8 13,4 10,1 11 6 21 12 E 1015,2 50 60 0,0
21.04.2019 16:00:00 23,6 5,9 29,5 13,1 10,1 13 7 24 13 E 1015,9 45 60 0,0
21.04.2019 15:00:00 24,2 5,5 29,5 12,9 10,1 19 10 32 18 ESE 1016,7 20 60 0,0
21.04.2019 14:00:00 23,6 5,5 28,1 12,7 10,1 17 9 31 17 E 1017,4 20 60 0,0
21.04.2019 13:00:00 23,5 4,4 25,7 12,6 10,1 18 10 27 14 E 1018,2 32 60 0,0
21.04.2019 12:00:00 22,3 7,3 27,6 12,5 10,1 15 8 22 12 ENE 1018,7 19 60 0,0
21.04.2019 11:00:00 20,2 8,5 25,2 12,5 10,1 11 6 15 8 ENE 1019,5 22 60 0,0
21.04.2019 10:00:00 17,6 8,4 20,0 12,6 10,1 6 3 13 7 NE 1020,0 17 60 0,0
21.04.2019 09:00:00 15,1 7,1 12,9 12,7 10,1 10 5 14 8 NE 1020,4 16 60 0,0
21.04.2019 08:00:00 12,1 5,9 5,6 12,8 10,1 9 5 14 8 NE 1020,9 14 47 0,0
21.04.2019 07:00:00 9,6 4,6 4,2 12,9 10,1 11 6 14 7 NNE 1021,1 15 0 0,0
21.04.2019 06:00:00 11,0 5,1 5,2 13,0 10,1 8 4 16 9 NE 1021,2 14 0 0,0
21.04.2019 05:00:00 12,2 5,4 10,1 13,1 10,0 13 7 19 10 NNE 1021,6 14 0 0,0
21.04.2019 04:00:00 12,0 6,1 8,3 13,3 10,0 11 6 18 10 NE 1022,4 13 0 0,0
21.04.2019 03:00:00 13,0 5,9 10,9 13,3 10,0 14 8 18 10 NNE 1022,9 15 0 0,0
21.04.2019 02:00:00 13,5 6,4 11,0 13,4 10,0 13 7 21 11 NNE 1023,7 16 0 0,0
21.04.2019 01:00:00 14,4 6,2 12,4 13,5 10,0 16 8 21 12 NNE 1024,3 17 0 0,0
21.04.2019 00:00:00 15,1 6,4 12,9 13,6 10,0 16 9 23 12 NNE 1024,7 20 0 0,0
20.04.2019 23:00:00 16,5 6,3 13,9 13,7 10,0 17 9 24 13 NNE 1024,8 22 0 0,0
20.04.2019 22:00:00 16,9 5,8 14,7 13,7 10,0 13 7 18 10 NNE 1024,8 51 0 0,0
20.04.2019 21:00:00 19,1 5,2 16,0 13,7 10,0 10 5 21 11 NNE 1024,2 60 0 0,0
20.04.2019 20:00:00 22,0 4,1 23,6 13,6 9,9 14 8 27 15 NE 1024,1 52 50 0,0
20.04.2019 19:00:00 22,5 5,0 24,7 13,5 9,9 20 11 29 16 NE 1024,3 60 60 0,0
20.04.2019 18:00:00 23,9 1,5 29,5 13,3 9,9 17 9 35 19 NE 1024,5 39 60 0,0
20.04.2019 17:00:00 24,1 4,9 30,4 13,1 9,9 21 11 34 18 NE 1025,0 29 60 0,0
20.04.2019 16:00:00 24,3 4,6 29,9 12,8 9,9 19 10 37 20 NE 1025,6 23 60 0,0
20.04.2019 15:00:00 24,4 5,7 29,6 12,6 9,9 21 11 33 18 E 1025,9 19 60 0,0
20.04.2019 14:00:00 24,0 9,2 30,7 12,4 9,9 17 9 31 17 ENE 1026,2 22 60 0,0
20.04.2019 13:00:00 22,6 10,4 29,1 12,3 9,9 19 11 27 15 ENE 1026,6 19 60 0,0
20.04.2019 12:00:00 21,4 10,5 28,2 12,2 9,9 12 7 17 9 NE 1026,9 18 60 0,0
20.04.2019 11:00:00 18,6 10,7 23,1 12,2 9,9 9 5 16 9 NNE 1027,4 15 60 0,0
20.04.2019 10:00:00 15,8 8,8 19,4 12,3 9,9 5 3 11 6 NNE 1027,7 11 60 0,0
20.04.2019 09:00:00 13,6 7,8 12,4 12,4 9,9 8 4 17 9 NNE 1027,8 10 60 0,0
20.04.2019 08:00:00 11,2 7,1 9,5 12,5 9,9 13 7 18 10 NNE 1027,4 9 37 0,0
20.04.2019 07:00:00 10,9 6,4 7,9 12,6 9,9 13 7 18 10 N 1027,1 8 0 0,0
20.04.2019 06:00:00 10,1 6,2 6,4 12,7 9,9 9 5 16 9 N 1027,3 9 0 0,0
20.04.2019 05:00:00 10,6 6,5 6,9 12,8 9,8 11 6 16 8 N 1027,2 9 0 0,0
20.04.2019 04:00:00 11,1 7,0 6,3 12,9 9,8 10 5 16 8 NNE 1027,4 11 0 0,0
20.04.2019 03:00:00 13,1 7,7 11,5 13,0 9,8 12 7 21 12 NNE 1027,1 12 0 0,0
20.04.2019 02:00:00 13,3 7,7 11,3 13,1 9,8 14 7 18 10 NNE 1027,1 13 0 0,0
20.04.2019 01:00:00 13,8 8,2 12,0 13,2 9,8 13 7 21 12 NNE 1027,2 16 0 0,0
20.04.2019 00:00:00 15,2 8,7 13,5 13,2 9,8 17 9 24 13 NNE 1027,1 17 0 0,0
19.04.2019 23:00:00 16,8 8,7 14,5 13,2 9,8 10 6 15 8 N 1027,0 19 0 0,0
19.04.2019 22:00:00 17,6 9,5 15,3 13,2 9,8 10 5 16 9 N 1026,8 23 0 0,0
19.04.2019 21:00:00 18,9 8,2 16,4 13,2 9,8 10 5 16 9 N 1026,2 34 0 0,0
19.04.2019 20:00:00 21,0 8,9 22,9 13,0 9,8 11 6 21 11 NNE 1025,4 52 47 0,0
19.04.2019 19:00:00 22,4 9,2 25,7 12,8 9,8 13 7 22 12 NNE 1024,8 20 55 0,0
19.04.2019 18:00:00 23,0 7,1 26,7 12,6 9,7 14 7 21 11 NNE 1024,7 54 52 0,0
19.04.2019 17:00:00 23,9 7,9 27,2 12,3 9,7 7 4 19 11 N 1024,5 59 56 0,0
19.04.2019 16:00:00 23,6 7,2 30,5 12,0 9,7 12 6 23 13 NNE 1024,7 54 60 0,0
19.04.2019 15:00:00 23,4 5,8 31,4 11,8 9,7 10 6 22 12 N 1024,7 50 60 0,0
19.04.2019 14:00:00 22,9 7,4 29,0 11,6 9,7 15 8 29 16 E 1024,7 45 60 0,0
19.04.2019 13:00:00 21,9 8,4 28,7 11,5 9,7 16 9 30 16 NE 1024,9 46 60 0,0
19.04.2019 12:00:00 20,8 8,4 26,5 11,4 9,7 16 9 24 13 NE 1024,9 44 60 0,0
19.04.2019 11:00:00 18,5 8,2 22,5 11,4 9,7 8 4 15 8 NE 1025,1 38 60 0,0
19.04.2019 10:00:00 16,0 6,7 17,7 11,5 9,7 11 6 18 10 ENE 1024,9 60 60 0,0
19.04.2019 09:00:00 13,8 6,6 12,2 11,5 9,7 14 7 25 14 ENE 1024,5 54 60 0,0
19.04.2019 08:00:00 11,7 5,8 8,4 11,6 9,7 17 9 22 12 NE 1024,2 32 39 0,0
19.04.2019 07:00:00 9,9 4,7 8,0 11,7 9,7 17 9 20 11 NE 1023,6 34 0 0,0
19.04.2019 06:00:00 10,8 4,5 8,8 11,8 9,7 16 9 20 11 NE 1023,2 39 0 0,0
19.04.2019 05:00:00 11,9 4,6 9,0 11,9 9,7 14 8 18 10 NE 1023,0 43 0 0,0
19.04.2019 04:00:00 12,6 4,3 10,5 12,0 9,7 16 8 18 10 NE 1022,7 48 0 0,0
19.04.2019 03:00:00 12,9 4,6 10,9 12,1 9,7 14 7 17 9 NE 1022,6 49 0 0,0
19.04.2019 02:00:00 13,7 4,8 11,0 12,2 9,7 14 7 16 9 NE 1022,4 47 0 0,0
19.04.2019 01:00:00 13,1 5,3 10,7 12,2 9,6 13 7 15 8 NE 1022,6 47 0 0,0
19.04.2019 00:00:00 14,2 5,8 11,0 12,3 9,7 13 7 17 9 NE 1022,3 39 0 0,0
18.04.2019 23:00:00 13,8 6,2 11,6 12,3 9,6 13 7 18 10 NE 1021,9 55 0 0,0
18.04.2019 22:00:00 15,6 7,1 13,2 12,3 9,6 14 7 18 10 NE 1021,5 47 0 0,0
18.04.2019 21:00:00 15,7 8,0 14,0 12,2 9,6 14 7 23 13 NE 1020,9 37 0 0,0
18.04.2019 20:00:00 18,8 8,7 19,7 12,2 9,7 18 10 29 15 ENE 1020,0 46 55 0,0
18.04.2019 19:00:00 20,9 8,2 22,6 12,0 9,6 18 10 28 15 ENE 1019,4 45 60 0,0
18.04.2019 18:00:00 20,8 9,4 23,1 11,8 9,6 18 10 27 15 ENE 1019,1 39 53 0,0
18.04.2019 17:00:00 22,0 8,1 25,3 11,5 9,6 21 12 34 19 ESE 1019,0 20 60 0,0
18.04.2019 16:00:00 22,2 10,0 26,8 11,3 9,6 20 11 36 20 E 1018,9 26 60 0,0
18.04.2019 15:00:00 21,6 10,4 23,9 11,1 9,6 21 11 36 20 E 1018,9 20 60 0,0
18.04.2019 14:00:00 21,4 9,3 26,5 10,9 9,6 24 13 36 19 E 1019,0 24 60 0,0
18.04.2019 13:00:00 20,6 9,8 24,5 10,8 9,6 24 13 38 21 E 1019,1 20 60 0,0
18.04.2019 12:00:00 18,8 10,1 22,3 10,7 9,6 22 12 32 18 E 1019,2 19 60 0,0
18.04.2019 11:00:00 16,5 9,9 19,6 10,7 9,6 18 10 28 15 E 1019,6 15 60 0,0
18.04.2019 10:00:00 14,4 9,8 15,3 10,7 9,6 19 11 29 16 ENE 1019,6 15 60 0,0
18.04.2019 09:00:00 12,0 8,5 9,6 10,8 9,6 18 10 26 14 ENE 1019,7 12 58 0,0
18.04.2019 08:00:00 9,4 7,5 8,2 10,9 9,6 20 11 25 14 ENE 1019,7 11 0 0,0
18.04.2019 07:00:00 9,0 7,1 8,2 10,9 9,6 14 8 19 11 NE 1019,5 12 0 0,0
18.04.2019 06:00:00 9,7 7,5 8,7 11,0 9,6 12 7 18 10 NE 1019,1 14 0 0,0
18.04.2019 05:00:00 10,0 7,6 9,1 11,1 9,6 11 6 21 11 ENE 1019,4 16 0 0,0
18.04.2019 04:00:00 10,5 7,9 9,6 11,1 9,6 16 9 20 11 ENE 1019,3 18 0 0,0
18.04.2019 03:00:00 10,8 7,7 9,9 11,2 9,6 14 8 21 12 ENE 1019,5 20 0 0,0
18.04.2019 02:00:00 11,5 7,6 10,3 11,3 9,6 15 8 18 10 ENE 1019,7 22 0 0,0
18.04.2019 01:00:00 11,4 7,3 9,9 11,4 9,6 15 8 22 12 ENE 1019,7 26 0 0,0
18.04.2019 00:00:00 11,0 6,9 9,0 11,4 9,6 16 9 21 11 E 1019,2 32 0 0,0
17.04.2019 23:00:00 10,7 6,3 8,3 11,4 9,6 16 9 20 11 ENE 1019,1 48 0 0,0
17.04.2019 22:00:00 10,6 5,8 8,6 11,4 9,6 13 7 17 9 ENE 1019,2 56 0 0,0
17.04.2019 21:00:00 12,1 6,2 9,4 11,4 9,6 12 6 22 12 E 1018,8 53 0 0,0
17.04.2019 20:00:00 14,6 6,4 15,0 11,2 9,6 13 7 27 15 E 1018,2 41 26 0,0
17.04.2019 19:00:00 16,3 7,2 17,9 11,0 9,5 19 10 26 14 E 1017,9 28 58 0,0
17.04.2019 18:00:00 17,3 7,6 18,4 10,9 9,6 15 8 24 13 E 1017,6 20 37 0,0
17.04.2019 17:00:00 18,1 8,1 18,5 10,6 9,6 13 7 22 12 ESE 1018,1 60 25 0,0
17.04.2019 16:00:00 18,1 6,3 20,1 10,3 9,6 10 6 18 10 E 1018,4 60 36 0,0
17.04.2019 15:00:00 18,3 7,1 23,9 10,0 9,6 5 3 19 11 SSE 1018,9 28 60 0,0
17.04.2019 14:00:00 16,5 8,5 22,2 9,8 9,6 12 6 22 12 S 1019,5 17 60 0,0
17.04.2019 13:00:00 14,6 8,1 18,2 9,7 9,5 14 8 20 11 S 1019,9 15 56 0,0
17.04.2019 12:00:00 12,9 9,0 15,7 9,7 9,6 9 5 19 10 SSE 1020,2 13 49 0,0
17.04.2019 11:00:00 10,4 9,2 11,1 9,7 9,5 10 6 16 8 ESE 1020,4 10 4 0,0
17.04.2019 10:00:00 8,6 8,2 9,2 9,7 9,6 8 5 11 6 SE 1020,5 1,6 15 0,0
17.04.2019 09:00:00 6,8 6,5 5,0 9,8 9,6 8 4 10 5 SE 1020,3 0,2 3 0,0
17.04.2019 08:00:00 5,2 4,8 -0,3 9,9 9,6 3 2 7 4 E 1020,3 0,4 16 0,0
17.04.2019 07:00:00 5,0 4,4 -0,7 9,9 9,6 3 2 6 4 SSE 1020,0 0,1 0 0,0
17.04.2019 06:00:00 6,5 5,9 2,6 10,0 9,6 4 2 6 3 SSE 1019,5 1,1 0 0,0
17.04.2019 05:00:00 6,8 6,2 2,7 10,0 9,6 5 3 8 4 WSW 1019,5 2,2 0 0,0
17.04.2019 04:00:00 7,4 6,8 4,6 10,0 9,6 7 4 10 5 WSW 1019,6 4,2 0 0,0

tt = Température de l'air
td = dewpoint
tt 5cm = Température de l'air 5cm
tt -20cm = Température de l'air -20cm
tt -100cm = Température de l'air -100cm
ff = Vitesse du vent
fx = gusts
dd = Direction du vent
ppp = reduced air pressure
vv = visibility
sd = Ensoleillement
rr = Quantités de précipitations

stations d'obs. à proximité